Regional Weather Roundup
Issued by NWS Cleveland, OH

Home | Current Version | Previous Version | Graphics & Text | Print | Product List | Glossary On
Versions: 1 2 3 4 5 6 7 8 9 10 11 12 13 14 15 16 17 18 19 20 21 22 23 24 25 26 27 28 29 30 31 32 33 34 35 36 37 38 39 40 41 42 43 44 45 46 47 48 49 50
000
ASUS41 KCLE 301700
RWRCLE
OHIO REGIONAL WEATHER ROUNDUP
NATIONAL WEATHER SERVICE WILMINGTON, OH
100 PM EDT SAT AUG 30 2014

NOTE: "FAIR" INDICATES FEW OR NO CLOUDS BELOW 12,000 FEET WITH NO
SIGNIFICANT WEATHER AND/OR OBSTRUCTIONS TO VISIBILITY.

OHZ001>008-015>018-024>027-034-035-043-044-301800-
   NORTHWEST OHIO

CITY           SKY/WX    TMP DP  RH WIND       PRES   REMARKS
DEFIANCE       CLOUDY    82  67  60 SW14G23   29.96F
FINDLAY        PTSUNNY   83  68  60 SW18G25   29.99F
TOLEDO EXPRESS CLOUDY    84  66  54 SW15      29.96F
TOLEDO METCALF CLOUDY    85  65  51 SW20G28   29.97F
LIMA           CLOUDY    83  68  60 SW13      30.02S
$$

OHZ009>014-019>023-028>033-038-089-301800-
   NORTHEAST OHIO

CITY           SKY/WX    TMP DP  RH WIND       PRES   REMARKS
CLE-HOPKINS    PTSUNNY   85  66  53 SW15      30.03F
CLE-LAKEFRONT  PTSUNNY   88  62  41 S20G30    29.99F
CUY CO. ARPT   PTSUNNY   88  68  51 S14       30.03F HX  91
LORAIN-ELYRIA  PTSUNNY   89  64  43 SW18G26   30.01F HX  90
ASHTABULA      MOSUNNY   84  71  65 SW13      30.05F
AKRON-CANTON   PTSUNNY   86  65  49 SW15      30.07F
WOOSTER        NOT AVBL
MANSFIELD      MOSUNNY   86  65  49 S18       30.06F
YOUNGSTOWN     PTSUNNY   83  70  64 S12       30.07F
$$

OHZ042-051>053-060>062-070>072-077>081-301800-
  SOUTHWEST OHIO

CITY           SKY/WX    TMP DP  RH WIND       PRES   REMARKS
CINC-COVINGTON PTSUNNY   83  66  56 S9        30.07F
CINC-LUNKEN    PTSUNNY   85  66  53 SW14      30.06S
HAMILTON       PTSUNNY   86  69  56 MISG      30.07S HX  90
DAYTON         NOT AVBL
WRIGHT-PAT AFB MOSUNNY   85  68  56 SW15      30.05S
DAYTON GENERAL MOSUNNY   84  65  52 SW12      30.06S
WILMINGTON     SUNNY     85  66  53 SW13      30.07S
$$

OHZ036-037-039>041-045>050-054>059-063>069-073>076-082>088-301800-
  CENTRAL AND SOUTHEAST OHIO

CITY           SKY/WX    TMP DP  RH WIND       PRES   REMARKS
COLUMBUS       PTSUNNY   90  60  36 SW16      30.05F
OSU AIRPORT    MOSUNNY   87  62  43 SW15G23   30.05F
BOLTON FIELD   SUNNY     84  68  58 S16       30.06F
RICKENBACK AFB NOT AVBL
NEWARK         SUNNY     85  66  53 S12G18    30.06F
MARION         MOSUNNY   85  67  54 S15G23    30.04F
LANCASTER      SUNNY     88  66  48 SW10      30.07F HX  90
ZANESVILLE     SUNNY     87  66  49 SW9       30.08F
NEW PHILLY     MOSUNNY   84  71  65 SW9       30.08F
$$


USA.gov is the U.S. government's official web portal to all federal, state and local government web resources and services.